Карточка аэропорта URKK

Внимание!
Информация на этой странице в стадии наполнения.
Если вы не увидели какой-то информации, или заметили неточность - пожалуйста сообщите нам!
Спасибо!
Команда RU-STAFF
Название аэропортаПашковский
Название аэропорта (англ.)Pashkovskiy
Превышение120 ft. (36.6 m.)
Координаты45°2.0820000000001', 39°10.218'
Высота перехода4000 ft
Эшелон переходаFL60 (QNH >= 977); FL70 (QNH < 977)
Коды ответчика1030-1037
Зона ОрВДРостов-на-Дону РПИ (URRV)
Данные METARURKK 010630Z VRB01MPS 9999 OVC007 02/01 Q1011 R23L/290060 NOSIG RMK QFE755
Проноз погоды (TAF)URKK 010446Z 0106/0206 35003G08MPS 6000 -SHRA BKN020CB TEMPO 0106/0110 0200 FG BKN002 BKN020CB FM011000 10003G08MPS 9999 SCT020CB TEMPO 0110/0203 2000 -SHRA BR SCT005 BKN020CB BECMG 0115/0117 28003G08MPS
NOTAMshow/hide NOTAM
AWOS   TABLE

Информация о ВПП

ВПП Длина ВПП (м.) Покрытие Курс ВПП Частота ILS
23R2200Асфальтобетон226 
23L3000Железобетон226 
05R3000Железобетон46 
05L2200Асфальтобетон46 

Диспетчерские позиции

Позывной Наименование органа УВД Частота
URKK_APPКраснодар-Подход129.6
URKK_GNDКраснодар-Руление119.0
URKK_R_APPКраснодар-Круг121.3
URKK_TWRКраснодар-Вышка118.2



Спутниковое изображение